User: anonymous
Location: Sunrise Point
(46.9200°N, 121.5900°W)
Time: 17:15:25
(UTC-07:00)
Language:

Cosmos 2058 - Orbit

View from above orbital plane
View from above orbital plane
View from above satellite
View from above satellite

Ground track
Ground track

The orbit data is extracted from the following two-line orbital elements,

1 20465U 90010A   14241.89564636  .00001180  00000-0  10522-3 0  2037
2 20465 082.4934 149.5057 0017946 131.0223 229.2553 14.95002688332424
Epoch (UTC): 29 August 2014 21:29:43
Eccentricity: 0.0017946
inclination: 82.4934°
perigee height: 570 km
apogee height: 595 km
right ascension of ascending node: 149.5057°
argument of perigee: 131.0223°
revolutions per day: 14.95002688
mean anomaly at epoch: 229.2553°
orbit number at epoch: 33242

The dashed part of the orbit path shows where the satellite is in the earth's shadow,  

DLR